www.pogodaiklimat.ru

Погода и климат >> Архив погоды >> Россия >> Свердловская область >> Ирбит


ПОГОДА в Ирбите

  • Прогноз погоды в Ирбите
  • Монитор погоды в Ирбите

АРХИВ ПОГОДЫ в Ирбите

Время (UTC), дата Ветер
(напр.,м/с)
 
Видим.   Явления Облачность Т
(С)
Тd
(С)
f
(%)
Тe
(С)
Тes
(С)
Комфортность P
(гПа)
Po
(гПа)
Тmin
(С)
Tmax
(С)
R
(мм)
R24
(мм)
S
(см)
03 12.08 Ю 2 50 км 9/8 600 м
[Sc Ac trans Ci fib]
+19.1 +13.4 70 +21 +21 комфорт 1001.1 992.5 +18.5
06 12.08 С 1 50 км 9/0
[Ac trans Ci sp]
+22.9 +15.0 61 +27 +35 душно 1001.7 993.2
09 12.08 СВ 4 50 км в посл. час ливневой дождь 9/6 600 м
[Cb calv Ac trans Cs]
+22.5 +18.1 76 +28 +30 душно 1001.5 993.1
12 12.08 В 3 50 км {ливн. осадки} 9/8 600 м
[Cb calv Ac trans Cs]
+25.1 +16.7 60 +29 +29 душно 1001.4 993.0
15 12.08 В 2 20 км 9/8 600 м
[Cb calv Ac trans Cs]
+22.3 +17.8 76 +27 +27 душно 1001.4 992.9 +26.2
18 12.08 В 1 40 км 10/8 600 м
[Cb calv Ac und]
+19.2 +14.5 74 +22 +22 комфорт 1001.9 993.4
21 12.08 штиль 0 30 км 8/0
[Ac trans Ci sp]
+16.5 +14.0 85 +16 +16 1002.2 993.5
00 13.08 СВ 1 20 км 9/3 600 м
[Sc Ac trans Ci sp]
+15.4 +14.1 92 +16 +16 1002.4 993.7
03 13.08 СВ 1 50 км 9/8 600 м
[Cb calv Ac trans Ci]
+17.8 +15.1 84 +19 +19 1003.0 994.4 +15.2
06 13.08 СВ 3 50 км {ливн. осадки} 10/4 600 м
[Cb calv Ac As Ci sp]
+21.4 +16.7 75 +25 +28 комфорт 1003.1 994.6
09 13.08 СВ 5 50 км {ливн. осадки} 10/3 600 м
[Sc Ac trans Ci sp]
+23.5 +16.3 64 +27 +29 душно 1003.9 995.4
12 13.08 СВ 3 50 км в посл. час ливневой дождь 10/8 600 м
[Cb calv Ac und]
+21.4 +17.7 79 +26 +26 душно 1004.8 996.3
15 13.08 СВ 3 20 км 10/5 600 м
[Sc Ac cast Ci fib]
+22.1 +17.8 77 +27 +27 душно 1005.7 997.1 +24.5
18 13.08 СВ 2 20 км 4/0
[Ci fib]
+17.5 +15.0 85 +18 +18 1007.5 998.8
21 13.08 СВ 2 15 км 3/0
[Ci fib]
+14.2 +12.2 88 +14 +14 1008.1 999.3
00 14.08 С 2 50 км 1/0
[Ci fib]
+13.5 +11.9 90 +13 +13 1009.2 1000.3
03 14.08 СВ 2 50 км 1/0
[Ac trans]
+16.7 +13.0 79 +17 +20 1010.1 1001.3 +13.2
06 14.08 В 4 50 км 3/0
[Ac trans Ci sp]
+21.6 +12.7 57 +24 +30 комфорт 1010.4 1001.8
09 14.08 СВ 3 50 км 6/3 600 м
[Cu med, cong Ac trans Ci sp]
+24.1 +11.5 45 +26 +30 жарко 1010.4 1001.9
12 14.08 В 3 50 км 6/3 600 м
[Cu med, cong Ac trans Ci sp]
+23.6 +10.7 44 +25 +27 комфорт 1010.7 1002.1
15 14.08 В 2 50 км 3/0
[Ac trans Ci sp]
+20.0 +12.2 61 +22 +22 комфорт 1011.5 1002.8 +24.3
18 14.08 Ю 1 30 км ясно +14.8 +12.5 86 +15 +15 1012.4 1003.6
21 14.08 Ю 1 20 км ясно +11.2 +10.2 94 +11 +11 1012.2 1003.3
00 15.08 Ю 1 20 км 8/8 600 м
[Sc Ac trans]
+11.7 +11.0 95 +11 +11 1012.9 1004.0
03 15.08 ЮЗ 1 2000 м дымка {туман} 8/6 600 м
[Sc Ac trans]
+13.5 +12.7 95 +14 +15 1014.1 1005.2 +10.3
06 15.08 З 2 50 км {туман} 3/0
[Ac trans Ci fib]
+21.8 +14.6 64 +25 +34 комфорт 1013.9 1005.3
09 15.08 СЗ 2 50 км 6/5 600 м
[Cu med, cong Ci fib]
+23.9 +12.2 48 +26 +31 жарко 1013.7 1005.2
12 15.08 С 2 50 км 6/3 600 м
[Cu hum Ci sp]
+24.6 +9.3 38 +25 +28 комфорт 1013.7 1005.1
15 15.08 СЗ 1 50 км 8/3 600 м
[Cu hum Ci sp]
+21.8 +13.5 59 +25 +25 комфорт 1014.0 1005.4 +25.1
18 15.08 ЮЗ 1 50 км 8/0
[Ci sp]
+14.7 +12.8 88 +15 +15 1015.0 1006.2
21 15.08 ЮЗ 1 50 км 3/0
[Ci fib]
+12.4 +11.3 93 +12 +12 1015.5 1006.6
00 16.08 ЮЗ 2 20 км 3/0
[Ci fib]
+12.3 +11.4 94 +11 +11 1016.0 1007.1
03 16.08 З 1 20 км 9/6 600 м
[Sc Ac trans Ci sp]
+15.0 +13.6 91 +15 +16 1016.5 1007.6 +11.3
06 16.08 З 2 20 км 9/3 600 м
[Sc Ac trans Ci]
+21.5 +15.3 68 +25 +29 комфорт 1016.0 1007.4
09 16.08 З 1 20 км 9/5 600 м
[Cu med, cong Ci sp]
+23.8 +15.0 58 +27 +32 жарко 1015.2 1006.6
12 16.08 З 1 50 км 4/0
[Ac trans Ci sp]
+25.5 +14.2 50 +28 +32 жарко 1014.4 1005.9
15 16.08 Ю 1 20 км 9/0
[Ac trans Cs]
+21.7 +15.6 68 +25 +25 комфорт 1015.0 1006.4 +25.8
18 16.08 Ю 1 30 км 9/0
[Ac trans Cs]
+17.2 +15.1 87 +18 +18 1015.3 1006.5
21 16.08 Ю 1 30 км 4/0
[Ci sp]
+15.5 +14.3 93 +16 +16 1015.7 1006.9
00 17.08 ЮЗ 1 20 км 9/3 600 м
[Sc Ac trans Ci sp]
+15.9 +14.5 91 +17 +17 1015.7 1006.9
03 17.08 ЮЗ 2 20 км 9/3 600 м
[Sc Ac trans Ci]
+19.2 +16.0 82 +21 +22 комфорт 1016.0 1007.3 +15.5
06 17.08 З 2 20 км 10/3 600 м
[Sc Ac As]
+21.8 +16.7 73 +26 +28 душно 1016.6 1008.0
09 17.08 СЗ 2 50 км 9/8 600 м
[Sc Cc]
+25.0 +15.7 56 +28 +30 жарко 1016.9 1008.4
12 17.08 СЗ 1 50 км 10/3 600 м
[Sc Ci]
+24.7 +15.5 57 +28 +30 душно 1017.3 1008.7
15 17.08 СВ 2 50 км 9/0
[Ci]
+21.0 +16.0 73 +25 +25 комфорт 1017.8 1009.2 +25.3
18 17.08 ЮВ 2 50 км 8/0
[Ci sp]
+17.8 +14.8 83 +18 +18 1018.2 1009.4
21 17.08 ЮВ 3 20 км гроза, ливневой дождь 10/10 600 м
[Cb calv]
+17.2 +15.6 90 +17 +17 1018.5 1009.7
00 18.08 ЮВ 2 50 км в посл. час ливневой дождь {гроза} 10/10 600 м
[Cb calv]
+16.7 +15.3 91 +17 +17 1018.7 1009.9
03 18.08 В 4 20 км {ливн. осадки} 10/10 600 м
[Sc]
+16.9 +15.7 93 +16 +16 1018.6 1009.8 +16.5 6
06 18.08 В 3
{10}
50 км в посл. час ливневой дождь 10/10 600 м
[Cb calv]
+16.8 +16.1 96 +17 +17 1019.6 1010.8 +16.0
09 18.08 СВ 4 12 км слаб. дождь 10/10 300 м
[Frnb]
+15.6 +14.7 94 +15 +15 1021.1 1012.2
12 18.08 СВ 2 20 км слаб. дождь 10/10 300 м
[Frnb]
+17.0 +15.7 92 +17 +17 1022.1 1013.3
15 18.08 С 1 20 км в посл. час дождь 10/10 600 м
[Sc]
+16.4 +15.2 93 +17 +17 1023.1 1014.2 +17.4 24
18 18.08 С 1 20 км {дождь} 10/10 600 м
[Sc]
+15.0 +13.8 93 +15 +15 1024.6 1015.7
21 18.08 штиль 0 15 км 10/10 600 м
[Sc]
+14.3 +13.3 94 +14 +14 1025.3 1016.3

 

Местоположение метеостанции Ирбит (Свердловская область, Россия): широта 57.62 долгота 62.97 высота над уровнем моря 74 м.

В архиве по умолчанию представлена погода в Ирбите за последнюю неделю. Архивные данные за месяц целиком и за предыдущие месяцы, начиная с января 2011 года, Вы можете получить, выбрав интересующий диапазон дат из раскрывающегося списка и нажав кнопку "Ввод!".


*Определитесь, кто Вы:
робот инопланетянин человек

Внимание! Время в таблицах - всемирное. Для получения местного времени необходимо прибавить поправку, которая равна 5 ч.

Смотрите также архив погоды в соседних городах и на ближайших метеорологических станциях:

Погода в Туринске (Свердловская область, Россия) (64 км)
Погода в Артемовском (Свердловская область, Россия) (69 км)
Погода в Алапаевске (Свердловская область, Россия) (80 км)
Погода в Камышлове (Свердловская область, Россия) (87 км)
Погода в Бутке (Свердловская область, Россия) (111 км)
Погода в Тугулыме (Свердловская область, Россия) (119 км)
Погода в Таборах (Свердловская область, Россия) (135 км)
Погода в Тавде (Свердловская область, Россия) (145 км)
Погода в Каменск-Уральском (Свердловская область, Россия) (148 км)
Погода в Далматово (Курганская область, Россия) (150 км)

Пояснения к столбцам:

Ветер - указаны скорость ветра в м/с - средняя за 10 мин, порывы в срок и между сроками (в фигурных скобках) и направление, откуда дует ветер: С - северный, СВ - северо-восточный, В - восточный, ЮВ - юго-восточный, Ю - южный, ЮЗ - юго-западный, З - западный, СЗ - северо-западный.
Видимость - горизонтальная дальность видимости в метрах или километрах. При видимости от 1 до 10 км при отсутствии осадков обычно наблюдается дымка, при ухудшении видимости до 1 км и менее - туман. В сухую погоду видимость может ухудшаться дымом, пылью или мглою.
Явления - указаны атмосферные явления, наблюдавшиеся в срок или в последний час перед сроком; фигурными скобками обозначены явления, наблюдавшиеся между сроками (за 1-3 часа до срока); квадратными скобками обозначены град или гололедные отложения с указанием их диаметра в мм.
Облачность - указаны через наклонную черту общая и нижняя облачность в баллах и высота нижней границы облаков в метрах; квадратными скобками обозначены формы облаков: Ci - перистые, Cs - перисто-слоистые, Cc - перисто-кучевые, Ac - высококучевые, As - высокослоистые, Sc - слоисто-кучевые, Ns - слоисто-дождевые, Cu - кучевые, Cb - кучево-дождевые. Подробнее классификацию облаков см. в Атласе облаков (PDF).
T - Температура воздуха - температура, измеренная на высоте 2 м над землей.
Td - Температура точки росы - температура, при понижении до которой содержащийся в воздухе водяной пар достигнет насыщения.
f - Относительная влажность воздуха - влажноcть воздуха, измеренная на высоте 2 м над землей.
Te - Эффективная температура - температура, которую ощущает одетый по сезону человек в тени. Характеристика душности погоды. При расчете учитывается влияние влажности воздуха и скорости ветра на теплоощущения человека.
Tes - Эффективная температура на солнце - температура, которую ощущает человек, с поправкой на солнечный нагрев. Характеристика знойности погоды. Зависит от высоты солнца над горизонтом, облачности и скорости ветра. Ночью, в пасмурную погоду, а также при ветре 12 м/с и более поправка равна нулю.
P - Атмосферное давление - приведенное к уровню моря атмосферное давление.
Po - Атмосферное давление - измеренное на уровне метеостанции атмосферное давление.
Tmin - Минимальная температура - минимум температуры воздуха на высоте 2 м над землей.
Tmax - Максимальная температура - максимум температуры воздуха на высоте 2 м над землей.
R - Количество осадков - Количество выпавших осадков за период времени, мм. При наведении курсора мыши на число - период времени, за который выпало указанное количество осадков.
R24 - Количество осадков - Количество выпавших осадков за 24 часа, мм.
S - Снежный покров - Высота снежного покрова, см. При наведении курсора мыши на число - состояние снежного покрова и степень покрытия местности в баллах.